| time (UTC) | temp F | wind direction | speed MPH | gust MPH | rain 1hr in | rain 24hr in | rain mn in | humidity % | barometer mb |
| 20260831232004 | 79 | 196 | 0.0 | 0.0 | 0.00 | 0.00 | 0.10 | 68 | 1019.1 |
| 20260831231005 | 80 | 196 | 0.0 | 0.0 | 0.00 | 0.00 | 0.10 | 69 | 1019.1 |
| 20260831225004 | 80 | 196 | 0.0 | 0.0 | 0.00 | 0.00 | 0.10 | 68 | 1019.3 |
| 20260831223005 | 81 | 205 | 0.0 | 0.0 | 0.00 | 0.00 | 0.10 | 67 | 1019.4 |
| 20260831222004 | 81 | 205 | 0.0 | 0.0 | 0.00 | 0.00 | 0.10 | 66 | 1019.5 |
| 20260831221004 | 81 | 205 | 0.0 | 0.0 | 0.00 | 0.00 | 0.10 | 66 | 1019.6 |
| 20260831220004 | 82 | 205 | 0.0 | 0.0 | 0.00 | 0.00 | 0.10 | 64 | 1019.6 |
| 20260831215004 | 82 | 205 | 0.0 | 0.0 | 0.00 | 0.00 | 0.10 | 63 | 1019.6 |
| 20260831214004 | 82 | 179 | 0.0 | 0.0 | 0.00 | 0.00 | 0.10 | 64 | 1019.7 |
| 20260831212004 | 82 | 198 | 0.0 | 0.0 | 0.00 | 0.00 | 0.10 | 63 | 1019.7 |
| 20260831210004 | 82 | 198 | 0.0 | 0.0 | 0.00 | 0.00 | 0.10 | 63 | 1020.1 |
| 20260831204004 | 83 | 198 | 0.0 | 0.0 | 0.00 | 0.00 | 0.10 | 59 | 1020.0 |
| 20260831203005 | 82 | 202 | 0.0 | 0.0 | 0.00 | 0.00 | 0.10 | 61 | 1020.0 |
| 20260831202004 | 82 | 157 | 0.0 | 0.0 | 0.00 | 0.00 | 0.10 | 60 | 1020.1 |
| 20260831200004 | 82 | 155 | 0.0 | 0.0 | 0.00 | 0.00 | 0.10 | 62 | 1020.2 |
| 20260831195004 | 82 | 155 | 0.0 | 0.0 | 0.00 | 0.00 | 0.10 | 59 | 1020.2 |
| 20260831194004 | 83 | 155 | 0.0 | 0.0 | 0.00 | 0.00 | 0.10 | 62 | 1020.4 |
| 20260831193004 | 83 | 155 | 0.0 | 0.0 | 0.00 | 0.00 | 0.10 | 60 | 1020.3 |
| 20260831192005 | 82 | 155 | 0.0 | 0.0 | 0.00 | 0.00 | 0.10 | 60 | 1020.5 |
| 20260831191004 | 82 | 163 | 0.0 | 0.0 | 0.00 | 0.00 | 0.10 | 60 | 1020.5 |
| 20260831190005 | 82 | 162 | 0.0 | 0.0 | 0.00 | 0.00 | 0.10 | 58 | 1020.6 |
| 20260831184004 | 83 | 165 | 0.0 | 0.0 | 0.00 | 0.00 | 0.10 | 59 | 1020.6 |
| 20260831183004 | 82 | 148 | 0.0 | 0.0 | 0.00 | 0.00 | 0.10 | 59 | 1020.6 |
| 20260831180004 | 82 | 268 | 0.0 | 0.0 | 0.00 | 0.00 | 0.10 | 55 | 1020.7 |
| 20260831175005 | 81 | 259 | 0.0 | 0.0 | 0.00 | 0.00 | 0.10 | 68 | 1020.8 |
| 20260831174004 | 80 | 251 | 0.0 | 0.0 | 0.00 | 0.00 | 0.10 | 61 | 1020.8 |
| 20260831173004 | 80 | 255 | 0.0 | 0.0 | 0.00 | 0.00 | 0.10 | 63 | 1021.0 |
| 20260831172005 | 81 | 260 | 0.0 | 0.0 | 0.00 | 0.00 | 0.10 | 64 | 1021.0 |
| 20260831165004 | 81 | 200 | 0.0 | 0.0 | 0.00 | 0.00 | 0.10 | 66 | 1021.1 |
| 20260831164004 | 79 | 263 | 0.0 | 0.0 | 0.00 | 0.00 | 0.10 | 62 | 1021.4 |
| 20260831163004 | 79 | 175 | 0.0 | 0.0 | 0.00 | 0.00 | 0.10 | 64 | 1021.1 |
| 20260831160004 | 79 | 183 | 0.0 | 0.0 | 0.00 | 0.00 | 0.10 | 66 | 1021.2 |
| 20260831155005 | 79 | 116 | 0.0 | 0.0 | 0.00 | 0.00 | 0.10 | 66 | 1021.2 |
| 20260831154004 | 78 | 198 | 0.0 | 0.0 | 0.00 | 0.00 | 0.10 | 70 | 1021.1 |
| 20260831153005 | 77 | 201 | 0.0 | 0.0 | 0.00 | 0.00 | 0.10 | 72 | 1021.3 |
| 20260831152005 | 75 | 298 | 0.0 | 0.0 | 0.00 | 0.00 | 0.10 | 79 | 1021.3 |
| 20260831151004 | 73 | 297 | 0.0 | 0.0 | 0.00 | 0.00 | 0.10 | 88 | 1021.3 |
| 20260831150005 | 73 | 297 | 0.0 | 0.0 | 0.00 | 0.00 | 0.10 | 88 | 1021.5 |
| 20260831145004 | 73 | 298 | 0.0 | 0.0 | 0.00 | 0.00 | 0.10 | 88 | 1021.6 |
| 20260831144004 | 73 | 298 | 0.0 | 0.0 | 0.00 | 0.00 | 0.10 | 88 | 1021.8 |
| 20260831143004 | 72 | 298 | 0.0 | 0.0 | 0.00 | 0.00 | 0.10 | 88 | 1021.8 |
| 20260831142004 | 72 | 298 | 0.0 | 0.0 | 0.00 | 0.00 | 0.10 | 88 | 1021.7 |
| 20260831141004 | 72 | 298 | 0.0 | 0.0 | 0.00 | 0.00 | 0.10 | 89 | 1021.5 |
| 20260831140004 | 72 | 298 | 0.0 | 0.0 | 0.00 | 0.00 | 0.10 | 89 | 1021.4 |
| 20260831135005 | 72 | 298 | 0.0 | 0.0 | 0.00 | 0.00 | 0.10 | 88 | 1021.4 |
| 20260831134004 | 73 | 298 | 0.0 | 0.0 | 0.00 | 0.00 | 0.10 | 89 | 1021.4 |
| 20260831133004 | 73 | 298 | 0.0 | 0.0 | 0.00 | 0.00 | 0.10 | 89 | 1021.4 |
| 20260831132004 | 73 | 300 | 0.0 | 0.0 | 0.00 | 0.00 | 0.10 | 89 | 1021.3 |
| 20260831131004 | 73 | 300 | 0.0 | 0.0 | 0.00 | 0.00 | 0.10 | 89 | 1021.3 |
| 20260831130004 | 72 | 300 | 0.0 | 0.0 | 0.00 | 0.00 | 0.10 | 88 | 1021.6 |
| 20260831125004 | 72 | 301 | 0.0 | 0.0 | 0.00 | 0.00 | 0.10 | 88 | 1021.6 |
| 20260831124004 | 72 | 302 | 0.0 | 0.0 | 0.00 | 0.00 | 0.10 | 88 | 1021.4 |
| 20260831123004 | 72 | 304 | 0.0 | 0.0 | 0.00 | 0.00 | 0.10 | 88 | 1021.3 |
| 20260831122004 | 72 | 303 | 0.0 | 0.0 | 0.00 | 0.00 | 0.10 | 87 | 1021.3 |
| 20260831121004 | 72 | 304 | 0.0 | 0.0 | 0.00 | 0.00 | 0.10 | 87 | 1021.3 |
| 20260831120004 | 72 | 304 | 0.0 | 0.0 | 0.00 | 0.00 | 0.10 | 87 | 1021.3 |
| 20260831114004 | 71 | 304 | 0.0 | 0.0 | 0.00 | 0.00 | 0.10 | 87 | 1021.0 |
| 20260831113004 | 71 | 304 | 0.0 | 0.0 | 0.00 | 0.00 | 0.10 | 86 | 1021.0 |
| 20260831111004 | 71 | 303 | 0.0 | 0.0 | 0.00 | 0.00 | 0.10 | 86 | 1020.5 |
| 20260831110004 | 72 | 304 | 0.0 | 0.0 | 0.00 | 0.00 | 0.10 | 86 | 1020.5 |
| 20260831105004 | 72 | 304 | 0.0 | 0.0 | 0.00 | 0.00 | 0.10 | 86 | 1020.6 |
| 20260831104004 | 72 | 304 | 0.0 | 0.0 | 0.00 | 0.00 | 0.10 | 86 | 1020.5 |
| 20260831102004 | 71 | 304 | 0.0 | 0.0 | 0.00 | 0.00 | 0.10 | 85 | 1020.5 |
| 20260831101004 | 71 | 304 | 0.0 | 0.0 | 0.00 | 0.00 | 0.10 | 85 | 1020.4 |
| 20260831100004 | 71 | 304 | 0.0 | 0.0 | 0.00 | 0.00 | 0.10 | 85 | 1020.4 |
| 20260831095004 | 72 | 304 | 0.0 | 0.0 | 0.00 | 0.00 | 0.10 | 84 | 1020.2 |
| 20260831094004 | 71 | 304 | 0.0 | 0.0 | 0.00 | 0.00 | 0.10 | 84 | 1020.2 |
| 20260831093004 | 71 | 304 | 0.0 | 0.0 | 0.00 | 0.00 | 0.10 | 83 | 1020.2 |
| 20260831092004 | 72 | 304 | 0.0 | 0.0 | 0.00 | 0.00 | 0.10 | 83 | 1020.1 |
| 20260831091004 | 72 | 304 | 0.0 | 0.0 | 0.00 | 0.00 | 0.10 | 83 | 1020.1 |
| 20260831090005 | 71 | 304 | 0.0 | 0.0 | 0.00 | 0.00 | 0.10 | 83 | 1020.0 |
| 20260831085004 | 72 | 304 | 0.0 | 0.0 | 0.00 | 0.00 | 0.10 | 83 | 1019.8 |
| 20260831084004 | 72 | 304 | 0.0 | 0.0 | 0.00 | 0.00 | 0.10 | 82 | 1019.8 |
| 20260831083004 | 72 | 305 | 0.0 | 0.0 | 0.00 | 0.00 | 0.10 | 82 | 1019.8 |
| 20260831082004 | 72 | 305 | 0.0 | 0.0 | 0.00 | 0.00 | 0.10 | 82 | 1019.7 |
| 20260831081004 | 72 | 304 | 0.0 | 0.0 | 0.00 | 0.00 | 0.10 | 82 | 1019.7 |
| 20260831075004 | 72 | 309 | 0.0 | 0.0 | 0.00 | 0.00 | 0.10 | 82 | 1019.6 |
| 20260831074004 | 72 | 309 | 0.0 | 0.0 | 0.00 | 0.00 | 0.10 | 81 | 1019.7 |
| 20260831073004 | 72 | 309 | 0.0 | 0.0 | 0.00 | 0.00 | 0.10 | 81 | 1019.8 |
| 20260831072004 | 72 | 309 | 0.0 | 0.0 | 0.00 | 0.00 | 0.10 | 80 | 1019.8 |
| 20260831070005 | 72 | 310 | 0.0 | 0.0 | 0.00 | 0.00 | 0.10 | 79 | 1019.7 |
| 20260831065004 | 72 | 311 | 0.0 | 0.0 | 0.00 | 0.00 | 0.10 | 79 | 1019.7 |
| 20260831064004 | 72 | 316 | 0.0 | 0.0 | 0.00 | 0.00 | 0.10 | 79 | 1019.8 |
| 20260831063004 | 72 | 316 | 0.0 | 0.0 | 0.00 | 0.00 | 0.10 | 79 | 1020.0 |
| 20260831061004 | 72 | 315 | 0.0 | 0.0 | 0.00 | 0.00 | 0.10 | 79 | 1020.1 |
| 20260831060004 | 72 | 315 | 0.0 | 0.0 | 0.00 | 0.00 | 0.10 | 78 | 1020.4 |
| 20260831055004 | 72 | 315 | 0.0 | 0.0 | 0.00 | 0.00 | 0.10 | 78 | 1020.4 |
| 20260831054004 | 73 | 315 | 0.0 | 0.0 | 0.00 | 0.00 | 0.10 | 78 | 1020.2 |
| 20260831053005 | 73 | 315 | 0.0 | 0.0 | 0.00 | 0.00 | 0.10 | 78 | 1020.3 |
| 20260831052004 | 73 | 315 | 0.0 | 0.0 | 0.00 | 0.00 | 0.09 | 78 | 1020.2 |
| 20260831051004 | 73 | 316 | 0.0 | 0.0 | 0.00 | 0.00 | 0.09 | 77 | 1020.2 |
| 20260831050004 | 73 | 55 | 0.0 | 0.0 | 0.00 | 0.00 | 0.09 | 77 | 1019.9 |
| 20260831043004 | 74 | 55 | 0.0 | 0.0 | 0.00 | 0.00 | 0.07 | 77 | 1020.2 |
| 20260831042004 | 74 | 55 | 0.0 | 0.0 | 0.00 | 0.00 | 0.06 | 77 | 1020.2 |
| 20260831040004 | 74 | 55 | 0.0 | 0.0 | 0.00 | 0.00 | 0.23 | 77 | 1020.4 |
| 20260831035004 | 75 | 44 | 0.0 | 0.0 | 0.00 | 0.00 | 0.18 | 77 | 1020.5 |
| 20260831034004 | 75 | 44 | 0.0 | 0.0 | 0.00 | 0.00 | 0.16 | 77 | 1020.4 |
| 20260831033004 | 75 | 44 | 0.0 | 0.0 | 0.00 | 0.00 | 0.13 | 77 | 1020.3 |
| 20260831032004 | 75 | 44 | 0.0 | 0.0 | 0.00 | 0.00 | 0.13 | 77 | 1020.3 |
| 20260831031004 | 75 | 46 | 0.0 | 0.0 | 0.00 | 0.00 | 0.13 | 76 | 1020.4 |
| 20260831030004 | 75 | 46 | 0.0 | 0.0 | 0.00 | 0.00 | 0.13 | 76 | 1020.5 |
| 20260831025004 | 75 | 46 | 0.0 | 0.0 | 0.00 | 0.00 | 0.13 | 76 | 1020.2 |
| 20260831024004 | 75 | 46 | 0.0 | 0.0 | 0.00 | 0.00 | 0.13 | 76 | 1020.4 |
| 20260831023004 | 75 | 46 | 0.0 | 0.0 | 0.00 | 0.00 | 0.13 | 75 | 1020.4 |
| 20260831022004 | 75 | 46 | 0.0 | 0.0 | 0.00 | 0.00 | 0.13 | 75 | 1020.2 |
| 20260831021004 | 75 | 46 | 0.0 | 0.0 | 0.00 | 0.00 | 0.13 | 75 | 1020.2 |
| 20260831020004 | 75 | 46 | 0.0 | 0.0 | 0.00 | 0.00 | 0.13 | 75 | 1020.1 |
| 20260831014003 | 75 | 46 | 0.0 | 0.0 | 0.00 | 0.00 | 0.13 | 75 | 1020.2 |
| 20260831012004 | 76 | 46 | 0.0 | 0.0 | 0.00 | 0.00 | 0.13 | 75 | 1020.4 |
| 20260831011004 | 76 | 46 | 0.0 | 0.0 | 0.00 | 0.00 | 0.13 | 75 | 1020.3 |
| 20260831010004 | 76 | 46 | 0.0 | 0.0 | 0.00 | 0.00 | 0.13 | 74 | 1020.2 |
| 20260831005004 | 76 | 46 | 0.0 | 0.0 | 0.00 | 0.00 | 0.13 | 74 | 1020.1 |
| 20260831004003 | 76 | 46 | 0.0 | 0.0 | 0.00 | 0.00 | 0.13 | 74 | 1020.2 |
| 20260831003004 | 76 | 46 | 0.0 | 0.0 | 0.00 | 0.00 | 0.13 | 74 | 1019.9 |
| 20260831002004 | 76 | 46 | 0.0 | 0.0 | 0.00 | 0.00 | 0.13 | 74 | 1019.8 |
| 20260831001003 | 77 | 46 | 0.0 | 0.0 | 0.00 | 0.00 | 0.13 | 73 | 1019.8 |
| 20260831000004 | 77 | 46 | 0.0 | 0.0 | 0.00 | 0.00 | 0.13 | 73 | 1019.7 |
| 20260830235004 | 77 | 46 | 0.0 | 0.0 | 0.00 | 0.00 | 0.13 | 73 | 1019.7 |
| 20260830234004 | 77 | 46 | 0.0 | 0.0 | 0.00 | 0.00 | 0.13 | 73 | 1019.9 |